Regional Weather Roundup
Issued by NWS

Home | Current Version | Previous Version | Text Only | Print | Product List | Glossary On
Versions: 1 2 3 4 5 6 7 8 9 10 11 12 13 14 15 16 17 18 19 20 21 22 23 24 25 26 27 28 29 30 31 32 33 34 35 36 37 38 39 40 41 42 43 44 45 46 47 48 49 50
000
ASUS43 KDTX 231310
RWRMI
MICHIGAN HOURLY REGIONAL WEATHER ROUNDUP
NATIONAL WEATHER SERVICE DETROIT/PONTIAC MI
ISSUED BY NATIONAL WEATHER SERVICE GRAND RAPIDS MI
900 AM EDT WED MAY 23 2018

NOTE: "FAIR" INDICATES FEW OR NO CLOUDS BELOW 12,000 FEET WITH NO
SIGNIFICANT WEATHER AND/OR OBSTRUCTION TO VISIBILITY.

MIZ047>049-052>055-059>063-066>070-074>076-081>083-231400-
SOUTHEAST LOWER MICHIGAN

CITY           SKY/WX    TMP DP  RH WIND       PRES   REMARKS
ADRIAN         FAIR      62  57  83 N8        30.18R
ALMA           FAIR      57  57  99 CALM      30.18R
ANN ARBOR      FAIR      62  56  80 NW7       30.17R
BAD AXE        FAIR      57  57  98 NW3       30.16R
DETROIT CITY   FAIR      64  56  75 NW3       30.16R
DETROIT        FAIR      64  56  75 NW5       30.16R
FLINT          FAIR      58  56  93 CALM      30.18R
GROSSE ILE     FAIR      62  58  84 N6        30.16R
HILLSDALE      FAIR      59  54  82 NW5       30.18R
HOWELL         FAIR      57  56  95 CALM      30.18R

CITY           SKY/WX    TMP DP  RH WIND       PRES   REMARKS
JACKSON        FAIR      60  55  83 CALM      30.18R
LANSING        FAIR      58  54  86 CALM      30.19R
MASON          FAIR      58  53  82 CALM      30.19R
MONROE         FAIR      62  58  87 NW10      30.16R
MT. CLEMENS    MOSUNNY   59  59 100 NW6       30.15R
PONTIAC        PTSUNNY   60  56  86 NW7       30.16R
PORT HOPE        N/A     63  51  65 W8        30.12R
PORT HURON     FAIR      54  54 100 CALM      30.16R
TRI CITIES     FAIR      60  54  80 CALM      30.17R
YPSILANTI      FAIR      64  56  75 NW5       30.17R
$$
MIZ043>046-050>051-056>058-064>065-071>073-077>080-231400-
SOUTHWEST LOWER MICHIGAN

CITY           SKY/WX    TMP DP  RH WIND       PRES   REMARKS
BATTLE CREEK   FAIR      59  53  80 N3        30.20R
BENTON HARBOR  FAIR      55  52  89 CALM      30.20R
BIG RAPIDS     FAIR      55  52  90 SE3       30.18R
COLDWATER      FAIR      60  54  82 CALM      30.20R
HOLLAND        FOG       50  49  96 CALM      30.20R VSB 1/4
GRAND RAPIDS   FOG       50  50 100 CALM      30.19R VSB 1/2
KALAMAZOO      FAIR      60  53  77 N3        30.19R
MARSHALL       FAIR      58  53  84 CALM      30.19R
MOUNT PLEASANT FAIR      61  55  81 CALM      30.17R
MUSKEGON       FOG       50  48  93 SW3       30.20R VSB 1/8
STURGIS        FAIR      60  54  83 CALM      30.19R
$$
MIZ016>042-231400-
NORTHERN LOWER MICHIGAN

CITY           SKY/WX    TMP DP  RH WIND       PRES   REMARKS
ALPENA         FAIR      62  51  67 W7        30.13R
BEAVER ISLAND  FAIR      60  55  84 SW3       30.15S
BELLAIRE       FAIR      57  49  77 S3        30.18R
CADILLAC       FAIR      60  57  92 CALM      30.17S
CHARLEVOIX     FAIR      61  52  73 S3        30.19R
GAYLORD        FAIR      63  47  55 VRB6      30.17R
HOUGHTON LAKE  FAIR      61  50  67 W3        30.18R
MANISTEE       FAIR      54  52  93 CALM      30.18R
OSCODA         FAIR      65  49  56 NW7       30.13S
PELLSTON       FAIR      58  50  75 SE3       30.15R
TRAVERSE CITY  FAIR      62  55  77 CALM      30.16R
LUDINGTON      FAIR      55  54  94 CALM      30.17S
$$
MIZ007>008-015-231400-
EASTERN UPPER MICHIGAN

CITY           SKY/WX    TMP DP  RH WIND       PRES   REMARKS
KINROSS        FAIR      56  43  61 NW3       30.15
MACKINAC ISLAN FAIR      54  50  85 N5        30.15R
NEWBERRY       FAIR      56  49  77 CALM      30.14S
S. S. MARIE    FAIR      62  45  53 NW3       30.13R
$$
MIZ004>006-011>014-085-231400-
CENTRAL UPPER MICHIGAN

CITY           SKY/WX    TMP DP  RH WIND       PRES   REMARKS
MANISTIQUE     FAIR      48  46  95 S5        30.15R
ESCANABA       FAIR      60  49  66 CALM      30.16R
MENOMINEE      FAIR      61  51  70 N3        30.16S
SAWYER-GWINN   SUNNY     63  41  45 W6        30.16R
$$
MIZ001>003-009>011-084-231400-
WESTERN UPPER MICHIGAN

CITY           SKY/WX    TMP DP  RH WIND       PRES   REMARKS
IRON MOUNTAIN  FAIR      60  45  57 CALM      30.16R
HOUGHTON       FAIR      68  53  58 W9        30.12R
COPPER HARBOR    N/A     54  40  59 CALM      30.12R
IRONWOOD       FAIR      65  57  75 CALM      30.16R
$$

ABBREVIATIONS USED IN REMARKS
   TC - TEMPERATURE IN CELSIUS
  WCI - WIND CHILL INDEX
   HX - HEAT INDEX
  VSB - VISIBILITY





USA.gov is the U.S. government's official web portal to all federal, state and local government web resources and services.